This is the latest recevied weather packets stored in our database for station/object KA3ZXO. If no packets are shown the sender has not sent any weather packets the latest 10 day(s).
| Time | Temp. | Humidity | Pressure | Rain* | Wind** | Luminosity | Snow |
|---|---|---|---|---|---|---|---|
| 1778026372 | 25° C | 42% | 1011.1 hPa | 0 mm | - | 0 W/m² | - |
| 1778025772 | 25.56° C | 41% | 1010.8 hPa | 0 mm | - | 1 W/m² | - |
| 1778025172 | 25.56° C | 40% | 1010.9 hPa | 0 mm | - | 3 W/m² | - |
| 1778024573 | 26.11° C | 39% | 1010.7 hPa | 0 mm | - | 6 W/m² | - |
| 1778023967 | 26.11° C | 39% | 1010.6 hPa | 0 mm | - | 13 W/m² | - |
| 1778023367 | 26.67° C | 38% | 1010.7 hPa | 0 mm | - | 19 W/m² | - |
| 1778022763 | 26.67° C | 37% | 1010.8 hPa | 0 mm | - | 26 W/m² | - |
| 1778022163 | 26.67° C | 37% | 1010.8 hPa | 0 mm | - | 26 W/m² | - |
| 1778021563 | 26.67° C | 36% | 1010.6 hPa | 0 mm | - | 37 W/m² | - |
| 1778020961 | 26.67° C | 36% | 1010.7 hPa | 0 mm | - | 30 W/m² | - |
| 1778020361 | 27.22° C | 36% | 1010.6 hPa | 0 mm | - | 34 W/m² | - |
| 1778019759 | 27.78° C | 35% | 1010.5 hPa | 0 mm | - | 46 W/m² | - |
| 1778019159 | 27.78° C | 35% | 1010.6 hPa | 0 mm | - | 110 W/m² | - |
| 1778018553 | 27.78° C | 34% | 1010.5 hPa | 0 mm | - | 126 W/m² | - |
| 1778017949 | 28.33° C | 34% | 1010.5 hPa | 0 mm | - | 103 W/m² | - |
| 1778017344 | 28.33° C | 33% | 1010.6 hPa | 0 mm | - | 71 W/m² | - |
| 1778016738 | 28.89° C | 32% | 1010.5 hPa | 0 mm | - | 126 W/m² | - |
| 1778016137 | 28.89° C | 32% | 1010.5 hPa | 0 mm | - | 224 W/m² | - |
| 1778015538 | 28.89° C | 31% | 1010.3 hPa | 0 mm | - | 141 W/m² | - |
| 1778014936 | 28.89° C | 32% | 1010.5 hPa | 0 mm | - | 213 W/m² | - |
| 1778014332 | 28.89° C | 30% | 1010.3 hPa | 0 mm | - | 249 W/m² | - |
| 1778013732 | 30.56° C | 31% | 1010.3 hPa | 0 mm | - | 294 W/m² | - |
| 1778013132 | 29.44° C | 32% | 1010.4 hPa | 0 mm | - | 397 W/m² | - |
| 1778012530 | 29.44° C | 32% | 1010.4 hPa | 0 mm | - | 430 W/m² | - |
| 1778011924 | 29.44° C | 33% | 1010.5 hPa | 0 mm | - | 421 W/m² | - |
* Rain latest hour (hover to see other rain measurements)
** Current wind speed in m/s (hover to see current wind gust speed)